User: anonymous   Login
Location: Bodest
(46.3000°N, 22.5667°E)
Time: 22:56:59
(UTC+00:00)
Language:

Cosmos 1703 - Orbit

View from above orbital plane
View from above orbital plane
View from above satellite
View from above satellite

Ground track
Ground track

The orbit data is extracted from the following two-line orbital elements,

1 16262U 85108A   22026.51408343  .00001191  00000-0  67314-4 0  9996
2 16262  82.4759  33.6407 0009591 237.3056 122.7250 15.12158298972938
Epoch (UTC): 26 January 2022 12:20:16
Eccentricity: 0.0009591
inclination: 82.4759°
perigee height: 523 km
apogee height: 536 km
right ascension of ascending node: 33.6407°
argument of perigee: 237.3056°
revolutions per day: 15.12158298
mean anomaly at epoch: 122.7250°
orbit number at epoch: 97293

The dashed part of the orbit path shows where the satellite is in the earth's shadow,  

DLR